Location: ??????????
(48.4699°N, 37.9573°E)
Time: 01:39:18
(UTC+00:00)

Cosmos 2082 Rocket - Pass Details

Date: 20 January 2021
Orbit: 832 x 855 km, 71.0° (Epoch: 24 February)

Event Time Altitude Azimuth Distance (km) Brightness Sun altitude
Rises 16:07:21 0° 336° (NNW) 3,437 5.6 -19.4°
Reaches altitude 10° 16:10:30 10° 353° (N) 2,498 4.6 -19.9°
Enters shadow 16:13:48 20° 27° (NNE) 1,894 3.7 -20.4°
